Covington, KY

2:18 PM EDT on May 25, 2017 (GMT -0400)
Cincinnati-Northern KY International

Weather History for KCVG - September, 2013

Change the Weather History Date:

Tuesday, September 17, 2013

  Actual Average Record
Temperature  
Mean Temperature 65 °F 67 °F  
Max Temperature 77 °F 78 °F 94 °F (1927)
Min Temperature 53 °F 57 °F 41 °F (2000)
Degree Days  
Heating Degree Days 0 2  
Month to date heating degree days 10 13  
Since 1 July heating degree days 14 13  
Cooling Degree Days 0 4  
Month to date cooling degree days 115 102  
Year to date cooling degree days 1091 1070  
Growing Degree Days 15 (Base 50)    
Moisture  
Dew Point 51 °F    
Average Humidity 65    
Maximum Humidity 89    
Minimum Humidity 41    
Precipitation  
Precipitation 0.00 in 0.08 in 1.49 in (1958)
Month to date precipitation 0.16 1.49  
Year to date precipitation 33.21 31.28  
Snow  
Snow 0.00 in 0.00 in - ()
Month to date snowfall 0.0 0.0  
Since 1 July snowfall 0.0 0.0  
Since 1 September snowfall 0.0 0.0  
Snow Depth 0.00 in    
Sea Level Pressure  
Sea Level Pressure 30.24 in    
Wind  
Wind Speed 10 mph (East)    
Max Wind Speed 17 mph    
Max Gust Speed 21 mph    
Visibility 10 miles    
Events      
T = Trace of Precipitation, MM = Missing Value Source: NWS Daily Summary

Daily Weather History Graph

Daily Weather History Graph

Search for Another Location

Airport or City:

Trip Planner

Search our weather history database for the weather conditions in past years. The results will help you decide how hot, cold, wet, or windy it might be!

Date:

Astronomy

Sep. 17, 2013 Rise Set
Actual Time 7:22 AM EDT 7:43 PM EDT
Civil Twilight 6:55 AM EDT 8:10 PM EDT
Nautical Twilight 6:23 AM EDT 8:41 PM EDT
Astronomical Twilight 5:51 AM EDT 9:13 PM EDT
Moon 6:29 PM EDT (9/17) 5:16 AM EDT (9/17)
Length of Visible Light 13h 14m
Length of Day
12h 21m
Waxing Gibbous, 96% of the Moon is Illuminated
Sep 17
Waxing Gibbous
Sep 19
Full
Sep 26
Last Quarter
Oct 4
New
Oct 11
First Quarter

Hourly Weather History & Observations

Time (EDT) Temp. Dew Point Humidity Pressure Visibility Wind Dir Wind Speed Gust Speed Precip Events Conditions
12:52 AM 60.1 °F 52.0 °F 75% 30.28 in 10.0 mi ENE 8.1 mph - N/A   Clear
1:52 AM 59.0 °F 51.1 °F 75% 30.29 in 10.0 mi ENE 15.0 mph - N/A   Clear
2:52 AM 57.9 °F 51.1 °F 78% 30.29 in 10.0 mi ENE 15.0 mph - N/A   Partly Cloudy
3:52 AM 57.0 °F 51.1 °F 81% 30.29 in 10.0 mi ENE 12.7 mph - N/A   Scattered Clouds
4:52 AM 55.0 °F 51.1 °F 86% 30.29 in 10.0 mi ENE 12.7 mph - N/A   Scattered Clouds
5:52 AM 55.0 °F 50.0 °F 83% 30.29 in 10.0 mi ENE 11.5 mph - N/A   Partly Cloudy
6:52 AM 54.0 °F 50.0 °F 86% 30.29 in 10.0 mi ENE 13.8 mph - N/A   Partly Cloudy
7:52 AM 54.0 °F 50.0 °F 86% 30.30 in 10.0 mi East 8.1 mph - N/A   Scattered Clouds
8:52 AM 57.0 °F 51.1 °F 81% 30.30 in 10.0 mi East 10.4 mph - N/A   Mostly Cloudy
9:52 AM 60.1 °F 52.0 °F 75% 30.31 in 10.0 mi East 8.1 mph - N/A   Mostly Cloudy
10:52 AM 64.9 °F 53.1 °F 65% 30.31 in 10.0 mi East 8.1 mph - N/A   Mostly Cloudy
11:52 AM 68.0 °F 53.1 °F 59% 30.30 in 10.0 mi East 9.2 mph 16.1 mph N/A   Mostly Cloudy
12:52 PM 71.1 °F 53.1 °F 53% 30.28 in 10.0 mi ENE 10.4 mph - N/A   Mostly Cloudy
1:52 PM 73.0 °F 51.1 °F 46% 30.25 in 10.0 mi ESE 10.4 mph 16.1 mph N/A   Mostly Cloudy
2:52 PM 75.0 °F 50.0 °F 41% 30.22 in 10.0 mi ESE 12.7 mph - N/A   Mostly Cloudy
3:52 PM 75.0 °F 50.0 °F 41% 30.20 in 10.0 mi East 12.7 mph - N/A   Mostly Cloudy
4:52 PM 75.9 °F 51.1 °F 42% 30.18 in 10.0 mi ESE 5.8 mph - N/A   Mostly Cloudy
5:52 PM 73.0 °F 51.1 °F 46% 30.17 in 10.0 mi SE 10.4 mph - N/A   Mostly Cloudy
6:52 PM 72.0 °F 50.0 °F 46% 30.17 in 10.0 mi ESE 8.1 mph - N/A   Mostly Cloudy
7:52 PM 69.1 °F 51.1 °F 53% 30.16 in 10.0 mi East 4.6 mph - N/A   Mostly Cloudy
8:52 PM 66.0 °F 53.1 °F 63% 30.17 in 10.0 mi East 6.9 mph - N/A   Overcast
9:52 PM 66.0 °F 53.1 °F 63% 30.17 in 10.0 mi East 8.1 mph - N/A   Overcast
10:52 PM 64.0 °F 53.1 °F 67% 30.17 in 10.0 mi East 6.9 mph - N/A   Scattered Clouds
11:52 PM 62.1 °F 53.1 °F 72% 30.16 in 10.0 mi ESE 5.8 mph - N/A   Scattered Clouds